Weather History for Perry, FL

Change the Weather History Date:

Friday, May 17, 2013

  Actual Average (KCTY) Record (KCTY)
Temperature  
Mean Temperature 72 °F 75 °F  
Max Temperature 86 °F 88 °F 93 °F (2000)
Min Temperature 59 °F 62 °F 50 °F (2006)
Degree Days  
Heating Degree Days 0 0  
Month to date heating degree days 0  
Since 1 July heating degree days 1303  
Cooling Degree Days 8 10  
Month to date cooling degree days 132  
Year to date cooling degree days 314  
Growing Degree Days 22 (Base 50)    
Moisture  
Dew Point 63 °F    
Average Humidity 76    
Maximum Humidity 100    
Minimum Humidity 48    
Precipitation  
Precipitation 0.01 in 0.07 in 0.55 in (2004)
Month to date precipitation 1.20  
Year to date precipitation 15.68  
Sea Level Pressure  
Sea Level Pressure 30.08 in    
Wind  
Wind Speed 2 mph (SW)    
Max Wind Speed 12 mph    
Max Gust Speed 23 mph    
Visibility 7 miles    
Events Fog    
T = Trace of Precipitation, MM = Missing Value Source: NWS Daily Summary

Daily Weather History Graph

Daily Weather History Graph

Search for Another Location

Airport:

Trip Planner

Search our weather history database for the weather conditions in past years. The results will help you decide how hot, cold, wet, or windy it might be!

Date:

Astronomy

May. 17, 2013 Rise Set
Actual Time 6:39 AM EDT 8:22 PM EDT
Civil Twilight 6:13 AM EDT 8:48 PM EDT
Nautical Twilight 5:41 AM EDT 9:20 PM EDT
Astronomical Twilight 5:08 AM EDT 9:53 PM EDT
Moon 12:58 PM EDT (5/17) 1:24 AM EDT (5/17)
Length of Visible Light 14h 35m
Length of Day
13h 42m
Waxing Crescent, 45% of the Moon is Illuminated
May 17
Waxing Crescent
May 18
First Quarter
May 25
Full
May 31
Last Quarter
Jun 8
New

Hourly Weather History & Observations

Time (EDT) Temp. Heat Index Dew Point Humidity Pressure Visibility Wind Dir Wind Speed Gust Speed Precip Events Conditions
12:15 AM 64.4 °F - 62.6 °F 94% 30.07 in 5.0 mi Calm Calm - N/A   Clear
12:35 AM 64.4 °F - 64.4 °F 100% 30.07 in 4.0 mi Calm Calm - N/A   Clear
12:53 AM 64.9 °F - 62.1 °F 90% 30.05 in - Calm Calm - N/A   Unknown
12:55 AM 64.4 °F - 62.6 °F 94% 30.06 in 1.0 mi Calm Calm - N/A   Mist
1:15 AM 62.6 °F - 62.6 °F 100% 30.07 in 0.8 mi Calm Calm - N/A   Mist
1:35 AM 62.6 °F - 62.6 °F 100% 30.06 in 0.5 mi Calm Calm - N/A Fog Fog
1:53 AM 63.0 °F - 61.0 °F 93% 30.04 in - Calm Calm - N/A   Unknown
1:55 AM 62.6 °F - 60.8 °F 94% 30.05 in 1.0 mi Calm Calm - N/A   Mist
2:15 AM 62.6 °F - 60.8 °F 94% 30.05 in 1.2 mi Calm Calm - N/A   Mist
2:35 AM 64.4 °F - 64.4 °F 100% 30.06 in 4.0 mi East 4.6 mph - N/A   Clear
2:53 AM 66.0 °F - 64.0 °F 93% 30.04 in - ESE 5.8 mph - N/A   Unknown
2:55 AM 64.4 °F - 62.6 °F 94% 30.05 in 2.0 mi ESE 4.6 mph - N/A   Mist
3:15 AM 64.4 °F - 64.4 °F 100% 30.05 in 2.5 mi Calm Calm - N/A   Overcast
3:35 AM 64.4 °F - 62.6 °F 94% 30.05 in 2.5 mi Calm Calm - N/A   Mist
3:53 AM 64.9 °F - 63.0 °F 93% 30.04 in - Calm Calm - 0.01 in   Unknown
3:55 AM 64.4 °F - 62.6 °F 94% 30.06 in 0.5 mi Calm Calm - N/A Fog Fog
4:15 AM 62.6 °F - 60.8 °F 94% 30.06 in 0.8 mi Calm Calm - N/A   Overcast
4:35 AM 64.4 °F - 62.6 °F 94% 30.06 in 1.0 mi Calm Calm - N/A   Overcast
4:53 AM 64.0 °F - 62.1 °F 93% 30.04 in - Calm Calm - N/A   Unknown
4:55 AM 62.6 °F - 62.6 °F 100% 30.05 in 0.5 mi Calm Calm - N/A Fog Fog
5:15 AM 62.6 °F - 60.8 °F 94% 30.05 in 0.2 mi Calm Calm - N/A Fog Fog
5:35 AM 60.8 °F - 60.8 °F 100% 30.05 in 0.2 mi Calm Calm - N/A Fog Fog
5:53 AM 62.1 °F - 60.1 °F 93% 30.04 in - Calm Calm - N/A   Unknown
5:55 AM 60.8 °F - 60.8 °F 100% 30.05 in 0.5 mi Calm Calm - N/A Fog Fog
6:15 AM 60.8 °F - 60.8 °F 100% 30.06 in 0.2 mi Calm Calm - N/A Fog Fog
6:35 AM 59.0 °F - 59.0 °F 100% 30.07 in 0.2 mi Calm Calm - N/A Fog Fog
6:53 AM 60.1 °F - 57.9 °F 93% 30.06 in - Calm Calm - N/A   Unknown
6:55 AM 59.0 °F - 59.0 °F 100% 30.08 in 0.2 mi Calm Calm - N/A Fog Fog
7:15 AM 59.0 °F - 59.0 °F 100% 30.09 in 0.8 mi Calm Calm - N/A   Mist
7:35 AM 60.8 °F - 60.8 °F 100% 30.10 in 2.0 mi Calm Calm - N/A   Clear
7:53 AM 64.9 °F - 64.0 °F 97% 30.09 in - Calm Calm - N/A   Unknown
7:55 AM 62.6 °F - 62.6 °F 100% 30.10 in 4.0 mi Calm Calm - N/A   Clear
8:15 AM 64.4 °F - 62.6 °F 94% 30.10 in 10.0 mi Calm Calm - N/A   Clear
8:35 AM 64.4 °F - 64.4 °F 100% 30.11 in 10.0 mi ESE 3.5 mph - N/A   Clear
8:53 AM 71.1 °F - 64.9 °F 81% 30.10 in - Calm Calm - N/A   Unknown
8:55 AM 68.0 °F - 66.2 °F 94% 30.11 in 10.0 mi Calm Calm - N/A   Clear
9:15 AM 69.8 °F - 68.0 °F 94% 30.11 in 10.0 mi Calm Calm - N/A   Clear
9:35 AM 71.6 °F - 69.8 °F 94% 30.11 in 10.0 mi Calm Calm - N/A   Clear
9:53 AM 77.0 °F - 66.9 °F 71% 30.10 in - SSE 3.5 mph - N/A   Unknown
9:55 AM 73.4 °F - 69.8 °F 88% 30.12 in 10.0 mi SSE 3.5 mph - N/A   Clear
10:15 AM 75.2 °F - 68.0 °F 78% 30.11 in 10.0 mi SE 3.5 mph - N/A   Clear
10:35 AM 77.0 °F - 64.4 °F 65% 30.12 in 10.0 mi East 3.5 mph - N/A   Clear
10:53 AM 81.0 °F 82.7 °F 64.9 °F 58% 30.11 in - Calm Calm - N/A   Unknown
10:55 AM 78.8 °F - 64.4 °F 61% 30.12 in 10.0 mi Calm Calm - N/A   Clear
11:15 AM 78.8 °F - 64.4 °F 61% 30.12 in 10.0 mi Calm Calm - N/A   Clear
11:35 AM 80.6 °F 82.3 °F 64.4 °F 58% 30.12 in 10.0 mi SW 3.5 mph - N/A   Clear
11:53 AM 82.9 °F 84.4 °F 64.0 °F 53% 30.10 in - Calm Calm - N/A   Unknown
11:55 AM 80.6 °F 81.8 °F 62.6 °F 54% 30.12 in 10.0 mi South 4.6 mph - N/A   Clear
12:15 PM 80.6 °F 81.8 °F 62.6 °F 54% 30.11 in 10.0 mi West 3.5 mph - N/A   Mostly Cloudy
12:35 PM 80.6 °F 82.3 °F 64.4 °F 58% 30.11 in 10.0 mi Calm Calm - N/A   Mostly Cloudy
12:53 PM 84.9 °F 87.1 °F 66.0 °F 53% 30.09 in - South 6.9 mph - N/A   Unknown
12:55 PM 82.4 °F 83.9 °F 64.4 °F 54% 30.10 in 10.0 mi SSE 4.6 mph - N/A   Scattered Clouds
1:15 PM 80.6 °F 82.3 °F 64.4 °F 58% 30.10 in 10.0 mi Calm Calm - N/A   Scattered Clouds
1:35 PM 80.6 °F 82.3 °F 64.4 °F 58% 30.10 in 10.0 mi SSW 5.8 mph - N/A   Mostly Cloudy
1:53 PM 84.9 °F 87.6 °F 66.9 °F 55% 30.08 in - SW 10.4 mph - N/A   Unknown
1:55 PM 82.4 °F 84.6 °F 66.2 °F 58% 30.09 in 10.0 mi WSW 9.2 mph - N/A   Mostly Cloudy
2:15 PM 82.4 °F 83.9 °F 64.4 °F 54% 30.09 in 10.0 mi WSW 8.1 mph - N/A   Mostly Cloudy
2:35 PM 82.4 °F 83.9 °F 64.4 °F 54% 30.09 in 10.0 mi SW 9.2 mph - N/A   Scattered Clouds
2:53 PM 86.0 °F 88.2 °F 66.0 °F 51% 30.07 in - SW 9.2 mph - N/A   Unknown
2:55 PM 82.4 °F 83.9 °F 64.4 °F 54% 30.08 in 10.0 mi SW 9.2 mph - N/A   Scattered Clouds
3:15 PM 82.4 °F 83.9 °F 64.4 °F 54% 30.08 in 10.0 mi SW 10.4 mph 17.3 mph N/A   Scattered Clouds
3:35 PM 82.4 °F 83.4 °F 62.6 °F 51% 30.07 in 10.0 mi SW 11.5 mph 16.1 mph N/A   Scattered Clouds
3:53 PM 84.9 °F 86.6 °F 64.9 °F 51% 30.06 in - WSW 8.1 mph - N/A   Unknown
3:55 PM 82.4 °F 83.4 °F 62.6 °F 51% 30.07 in 10.0 mi WSW 8.1 mph - N/A   Clear
4:15 PM 82.4 °F 82.9 °F 60.8 °F 48% 30.07 in 10.0 mi WSW 10.4 mph - N/A   Clear
4:35 PM 82.4 °F 83.4 °F 62.6 °F 51% 30.07 in 10.0 mi SW 9.2 mph - N/A   Clear
4:53 PM 84.9 °F 85.9 °F 63.0 °F 48% 30.05 in - WSW 11.5 mph 23.0 mph N/A   Unknown
5:15 PM 82.4 °F 82.9 °F 60.8 °F 48% 30.07 in 10.0 mi WSW 8.1 mph 16.1 mph N/A   Clear
5:35 PM 82.4 °F 82.9 °F 60.8 °F 48% 30.06 in 10.0 mi SW 8.1 mph - N/A   Clear
5:53 PM 82.9 °F 83.7 °F 62.1 °F 49% 30.05 in - SW 10.4 mph - N/A   Unknown
5:55 PM 80.6 °F 81.5 °F 60.8 °F 51% 30.06 in 10.0 mi WSW 9.2 mph - N/A   Clear
6:15 PM 80.6 °F 81.5 °F 60.8 °F 51% 30.06 in 10.0 mi SW 9.2 mph - N/A   Clear
6:35 PM 80.6 °F 81.5 °F 60.8 °F 51% 30.06 in 10.0 mi WSW 10.4 mph - N/A   Clear
6:53 PM 81.0 °F 81.7 °F 61.0 °F 50% 30.05 in - SW 10.4 mph - N/A   Unknown
6:55 PM 78.8 °F - 59.0 °F 51% 30.07 in 10.0 mi SW 9.2 mph - N/A   Clear
7:15 PM 78.8 °F - 60.8 °F 54% 30.06 in 10.0 mi SW 9.2 mph - N/A   Clear
7:35 PM 77.0 °F - 60.8 °F 57% 30.06 in 10.0 mi SW 8.1 mph - N/A   Clear
7:53 PM 77.0 °F - 62.1 °F 60% 30.05 in - SW 5.8 mph - N/A   Unknown
7:55 PM 77.0 °F - 60.8 °F 57% 30.06 in 10.0 mi WSW 5.8 mph - N/A   Clear
8:15 PM 73.4 °F - 62.6 °F 69% 30.06 in 10.0 mi SW 3.5 mph - N/A   Clear
8:35 PM 71.6 °F - 62.6 °F 73% 30.07 in 10.0 mi WSW 3.5 mph - N/A   Clear
8:53 PM 72.0 °F - 63.0 °F 73% 30.06 in - SW 3.5 mph - N/A   Unknown
8:55 PM 69.8 °F - 62.6 °F 78% 30.07 in 10.0 mi SW 3.5 mph - N/A   Clear
9:15 PM 69.8 °F - 62.6 °F 78% 30.07 in 10.0 mi Calm Calm - N/A   Clear
9:35 PM 69.8 °F - 62.6 °F 78% 30.08 in 10.0 mi Calm Calm - N/A   Clear
9:53 PM 71.1 °F - 63.0 °F 75% 30.06 in - Calm Calm - N/A   Unknown
9:55 PM 69.8 °F - 62.6 °F 78% 30.08 in 10.0 mi Calm Calm - N/A   Clear
10:15 PM 68.0 °F - 62.6 °F 83% 30.08 in 10.0 mi Calm Calm - N/A   Clear
10:35 PM 68.0 °F - 62.6 °F 83% 30.08 in 10.0 mi Calm Calm - N/A   Clear
10:53 PM 68.0 °F - 63.0 °F 84% 30.07 in - Calm Calm - N/A   Unknown
10:55 PM 68.0 °F - 62.6 °F 83% 30.08 in 10.0 mi Calm Calm - N/A   Clear
11:15 PM 66.2 °F - 62.6 °F 88% 30.09 in 10.0 mi Calm Calm - N/A   Clear
11:35 PM 64.4 °F - 62.6 °F 94% 30.09 in 10.0 mi Calm Calm - N/A   Clear
11:53 PM 66.0 °F - 63.0 °F 90% 30.07 in - Calm Calm - N/A   Unknown
11:55 PM 64.4 °F - 62.6 °F 94% 30.09 in 7.0 mi Calm Calm - N/A   Clear